Location: Bishausen
(51.6334°N, 9.9631°E)
Time: 11:04:21
(UTC+00:00)

SJ 16-02 - Pass Details

Date: 23 May 2024
Orbit: 594 x 606 km, 75.0° (Epoch: 19 June)

Event Time Altitude Azimuth Distance (km) Brightness Sun altitude
Exits shadow 01:40:37 12° 182° (S) 1,830 3.3 -11.2°
Maximum altitude 01:44:33 52° 107° (ESE) 749 1.9 -10.8°
Drops below altitude 10° 01:48:44 10° 32° (NNE) 1,941 5.5 -10.5°
Sets 01:51:01 0° 27° (NNE) 2,848 6.8 -10.2°
